Regional Weather Roundup
Issued by NWS Charleston, WV

Home | Current Version | Previous Version | Graphics & Text | Print | Product List | Glossary On
Versions: 1 2 3 4 5 6 7 8 9 10 11 12 13 14 15 16 17 18 19 20 21 22 23 24 25 26 27 28 29 30 31 32 33 34 35 36 37 38 39 40 41 42 43 44 45 46 47 48 49 50
000
ASUS41 KRLX 010010
RWRRLX
West Virginia Regional Weather Roundup
National Weather Service Charleston WV
700 PM EST SAT JAN 31 2015

Note: "fair" indicates few or no clouds below 12,000 feet with no
significant weather and/or obstructions to visibility.

WVZ003-010100-
Northern Panhandle of West Virginia

CITY           SKY/WX    TMP DP  RH WIND       PRES   REMARKS
WHEELING       MOCLDY    27  15  61 SW6       30.25S
$$

WVZ009-010100-
Northwest West Virginia

CITY           SKY/WX    TMP DP  RH WIND       PRES   REMARKS
PARKERSBURG    CLOUDY    31  17  56 S3        30.32R
$$

WVZ006-010100-
Western West Virginia

CITY           SKY/WX    TMP DP  RH WIND       PRES   REMARKS
HUNTINGTON     CLOUDY    35  17  47 CALM      30.29S
$$

WVZ015-010100-
West Central West Virginia

CITY           SKY/WX    TMP DP  RH WIND       PRES   REMARKS
CHARLESTON     CLOUDY    34  17  50 CALM      30.29R
$$

WVZ022-031-010100-
North Central West Virginia

CITY           SKY/WX    TMP DP  RH WIND       PRES   REMARKS
CLARKSBURG     PTCLDY    27  14  58 S5        30.28R
MORGANTOWN     PTCLDY    27  11  51 S3        30.27S
$$

WVZ025-035-042-045-010100-
Southern West Virginia

CITY           SKY/WX    TMP DP  RH WIND       PRES   REMARKS
BECKLEY        MOCLDY    31   9  39 SW6       30.23S
LOGAN            N/A     34  12  40 CALM      30.27R
BLUEFIELD      PTCLDY    33   6  32 W6        30.24S
LEWISBURG      PTCLDY    31   4  31 CALM      30.23S
$$

WVZ047-010100-
Northern Mountains of West Virginia

CITY           SKY/WX    TMP DP  RH WIND       PRES   REMARKS
ELKINS         PTCLDY    20  14  77 CALM      30.24S
$$

WVZ052-010100-
Eastern Panhandle of West Virginia

CITY           SKY/WX    TMP DP  RH WIND       PRES   REMARKS
MARTINSBURG    CLEAR     29   9  43 W5        30.26R
PETERSBURG     PTCLDY    32   5  31 W9        30.25S
$$



USA.gov is the U.S. government's official web portal to all federal, state and local government web resources and services.